Location: Pine Lake Village
(34.3370°N, 86.5394°W)
Time: 04:33:33
(UTC+00:00)

Tiangong 2 - Visible Passes

Search period start: 18 October 2018 00:00
Search period end: 28 October 2018 00:00
Orbit: 384 x 393 km, 42.8° (Epoch: 17 October)

Date Brightness Start Highest point End Pass type
(mag) Time Alt. Az. Time Alt. Az. Time Alt. Az.
18 Oct 2.2 10:08:53 43° ENE 10:08:53 43° ENE 10:11:29 10° ESE visible
19 Oct 1.6 10:45:59 33° WSW 10:46:48 41° SSW 10:49:49 10° SE visible
20 Oct 3.9 09:50:51 17° ESE 09:50:51 17° ESE 09:51:41 10° ESE visible
20 Oct 3.6 11:24:40 10° SW 11:24:55 10° SW 11:25:09 10° SW visible
21 Oct 3.4 10:28:08 15° S 10:28:08 15° S 10:29:09 10° S visible
26 Oct 3.1 00:40:12 10° SSW 00:41:35 21° SSW 00:41:35 21° SSW visible
26 Oct 2.9 23:42:37 10° S 23:44:50 18° SE 23:46:18 14° ESE visible
27 Oct 4.5 01:18:19 10° WSW 01:18:37 12° WSW 01:18:37 12° WSW visible
